TimeHST,TemperatureF,Dew PointF,Humidity,Sea Level PressureIn,VisibilityMPH,Wind Direction,Wind SpeedMPH,Gust SpeedMPH,PrecipitationIn,Events,Conditions,WindDirDegrees,DateUTC
12:53 AM,69.1,62.1,78,29.99,10.0,Calm,Calm,-,N/A,,Scattered Clouds,0,2014-01-09 10:53:00
1:53 AM,68.0,63.0,84,29.96,10.0,NNW,3.5,-,N/A,,Scattered Clouds,330,2014-01-09 11:53:00
2:53 AM,68.0,63.0,84,29.94,10.0,NNW,5.8,-,N/A,,Partly Cloudy,340,2014-01-09 12:53:00
3:53 AM,66.9,62.1,84,29.94,10.0,NNW,4.6,-,N/A,,Partly Cloudy,330,2014-01-09 13:53:00
4:53 AM,66.0,61.0,84,29.95,10.0,Calm,Calm,-,N/A,,Scattered Clouds,0,2014-01-09 14:53:00
5:53 AM,66.0,62.1,87,29.96,10.0,NW,4.6,-,N/A,,Scattered Clouds,310,2014-01-09 15:53:00
6:53 AM,64.9,61.0,87,29.98,10.0,NNW,4.6,-,N/A,,Scattered Clouds,340,2014-01-09 16:53:00
7:53 AM,66.9,62.1,84,30.00,10.0,NNW,4.6,-,N/A,,Scattered Clouds,340,2014-01-09 17:53:00
8:53 AM,72.0,63.0,73,30.02,10.0,North,3.5,-,N/A,,Scattered Clouds,10,2014-01-09 18:53:00
9:53 AM,75.0,62.1,64,30.03,10.0,East,5.8,-,N/A,,Scattered Clouds,80,2014-01-09 19:53:00
10:53 AM,77.0,61.0,58,30.01,10.0,SE,4.6,-,N/A,,Scattered Clouds,140,2014-01-09 20:53:00
11:53 AM,79.0,63.0,58,29.99,10.0,South,6.9,-,N/A,,Scattered Clouds,170,2014-01-09 21:53:00
1:53 PM,78.1,61.0,56,29.93,10.0,SE,11.5,-,N/A,,Scattered Clouds,140,2014-01-09 23:53:00
2:53 PM,79.0,64.0,60,29.92,10.0,SE,11.5,-,N/A,,Scattered Clouds,140,2014-01-10 00:53:00
3:53 PM,77.0,62.1,60,29.91,10.0,SE,10.4,-,N/A,,Scattered Clouds,130,2014-01-10 01:53:00
4:53 PM,77.0,59.0,54,29.92,10.0,SE,9.2,-,N/A,,Scattered Clouds,140,2014-01-10 02:53:00
5:53 PM,75.9,60.1,58,29.94,10.0,SE,5.8,-,N/A,,Scattered Clouds,140,2014-01-10 03:53:00
6:53 PM,73.9,62.1,66,29.96,10.0,NNE,6.9,-,N/A,,Partly Cloudy,30,2014-01-10 04:53:00
7:53 PM,73.0,63.0,71,29.97,10.0,North,4.6,-,N/A,,Partly Cloudy,10,2014-01-10 05:53:00
8:53 PM,73.0,62.1,68,29.99,10.0,Calm,Calm,-,N/A,,Partly Cloudy,0,2014-01-10 06:53:00
9:53 PM,72.0,62.1,71,30.00,10.0,NW,4.6,-,N/A,,Partly Cloudy,320,2014-01-10 07:53:00
10:53 PM,69.1,62.1,78,30.01,10.0,Calm,Calm,-,N/A,,Partly Cloudy,0,2014-01-10 08:53:00
11:53 PM,71.1,63.0,75,30.01,10.0,Variable,6.9,-,N/A,,Scattered Clouds,0,2014-01-10 09:53:00